Theta_e
324 321 320 320 323 326 331 340 350 354 357 358 359 359 352 355 357 358 349 342 342 342 342 343 344 346 347 346 344 350 348 350 348 351 352 352 351 351 349 346 349 351 351 347
324 322 322 322 324 326 328 334 359 362 360 357 360 360 356 356 357 356 354 343 344 342 341 342 343 347 348 347 345 351 348 351 348 352 352 352 353 353 351 351 351 352 352 349
323 323 324 322 323 325 327 329 355 361 353 358 355 358 356 354 353 352 350 351 345 344 342 340 342 347 348 347 348 352 349 348 347 351 352 350 350 353 352 352 352 352 351 353
321 324 324 322 323 324 325 336 354 353 355 362 352 360 355 353 353 351 350 354 348 345 343 341 341 346 347 347 348 350 350 347 352 355 351 347 349 352 352 351 352 352 348 353
322 322 323 322 324 324 327 349 351 349 350 355 354 358 358 353 354 353 352 348 348 346 345 345 342 345 347 347 349 348 354 349 350 353 354 351 351 350 352 353 352 351 351 353
322 322 323 323 324 325 331 332 345 350 353 364 357 354 362 360 356 352 349 345 351 348 347 346 344 342 347 347 349 350 354 352 352 353 352 352 346 342 350 351 353 352 351 351
324 322 323 324 327 328 332 332 337 343 359 355 350 352 357 355 347 346 345 346 355 353 348 347 346 344 346 347 350 350 354 354 352 354 351 352 350 351 351 349 350 352 352 353
325 324 324 326 327 328 332 329 338 351 340 334 341 361 362 351 350 350 350 352 352 354 351 351 350 347 345 347 350 351 354 354 351 353 354 353 350 352 348 349 351 353 352 352
330 326 326 328 328 332 333 332 330 336 332 334 359 360 355 350 350 349 349 350 349 348 349 354 348 351 348 346 350 352 352 355 353 352 355 353 354 346 350 350 352 352 347 348
329 327 329 330 330 330 330 328 329 329 336 339 360 362 362 353 350 345 345 345 346 346 347 348 348 349 351 351 351 353 353 354 356 353 355 355 354 353 353 355 354 352 351 350
325 326 329 328 328 330 328 327 329 328 331 332 359 358 353 349 345 343 341 340 342 343 346 344 341 344 348 346 349 349 348 346 345 349 352 354 355 354 352 351 352 353 351 350
324 324 331 328 325 325 325 325 327 330 331 338 353 356 348 344 340 338 337 337 339 342 342 341 340 339 339 343 341 341 345 346 339 337 348 354 354 354 352 350 356 352 353 352
320 323 325 328 324 324 325 325 325 323 324 331 338 356 346 342 341 337 335 335 337 338 338 338 336 337 337 338 342 343 337 337 338 340 348 354 355 356 354 354 353 356 354 354
322 319 326 326 326 326 324 324 324 325 326 346 352 351 344 342 340 338 336 334 334 335 336 337 336 334 332 335 336 339 336 337 339 341 346 348 353 354 353 355 357 357 356 354
318 322 321 321 324 325 321 322 324 326 330 340 347 347 344 340 339 338 335 333 332 334 334 334 336 335 331 331 331 334 337 340 342 343 346 343 348 350 352 353 354 356 357 356
321 322 321 322 322 322 321 321 323 323 342 345 345 345 338 337 336 336 335 333 331 329 328 332 330 330 334 332 331 329 329 331 332 336 338 341 347 347 345 346 353 354 354 354
323 324 325 322 324 322 320 321 320 321 321 343 347 342 338 338 337 335 334 331 330 328 326 326 325 325 324 325 332 331 331 331 331 330 329 328 333 336 340 341 344 349 352 353
321 323 323 325 323 324 321 322 321 319 321 338 341 340 338 337 334 332 331 329 327 325 322 320 322 322 322 321 323 324 331 333 331 330 331 332 332 328 326 328 336 339 341 347
317 318 321 321 322 322 322 323 321 322 339 339 340 338 337 335 332 332 328 325 323 321 319 319 321 319 319 319 320 322 325 324 324 324 323 324 326 332 333 330 327 327 333 338
317 316 319 322 323 322 323 320 319 320 339 336 337 336 335 330 332 330 325 322 318 317 317 317 317 317 316 317 319 319 321 320 320 320 320 321 322 324 324 332 332 331 328 325
318 318 319 318 322 325 323 320 319 323 329 327 333 331 330 329 327 323 318 317 317 315 316 316 315 315 316 316 316 318 317 316 316 317 318 318 318 320 322 323 326 332 332 331
325 321 321 319 320 326 323 323 329 326 326 327 327 324 321 318 318 317 317 316 316 315 315 315 314 314 314 314 315 317 317 317 316 316 317 317 317 317 317 319 322 325 329 331
319 324 325 324 326 323 322 323 321 323 324 324 322 320 320 319 318 317 317 315 315 314 314 313 313 313 313 313 314 313 312 312 312 313 314 314 316 317 317 317 317 318 322 325
319 319 320 323 325 323 320 320 320 321 320 319 320 320 318 318 317 316 314 314 314 314 313 313 313 313 313 312 311 311 311 311 311 312 313 313 314 315 316 317 317 318 320 323
322 320 320 320 320 319 319 319 319 317 318 317 316 315 315 314 314 314 313 313 314 313 312 312 313 313 311 310 310 310 309 309 310 310 312 313 315 315 315 315 315 315 316 318
321 319 324 322 321 318 320 319 318 317 316 317 315 315 314 314 313 314 313 313 314 312 312 312 312 311 310 309 309 308 308 307 309 309 310 313 313 314 314 314 315 315 315 317
Wind_Speed
4 3 7 12 13 16 12 10 10 11 10 10 6 8 12 5 6 13 12 9 9 12 17 27 29 28 29 24 21 19 28 21 15 14 21 17 15 16 15 14 12 13 9 9
3 9 13 16 17 18 15 3 7 10 7 12 13 6 4 8 6 11 9 11 12 9 11 18 26 27 29 25 20 26 25 22 16 13 15 14 15 13 10 16 12 13 11 9
10 12 18 17 15 17 12 7 16 8 8 8 10 4 2 2 5 9 14 11 16 12 12 12 22 28 30 29 23 22 24 20 18 11 11 14 12 10 14 13 14 12 11 10
10 18 15 15 11 12 9 1 24 23 12 6 14 4 4 6 2 5 13 11 5 13 15 11 17 25 29 32 28 22 22 19 20 9 10 15 11 11 10 15 15 14 13 8
10 13 14 13 15 12 10 22 24 12 6 6 15 4 3 9 8 8 12 15 14 13 14 8 18 28 32 35 32 27 21 17 18 8 13 13 13 13 12 12 15 13 13 12
13 11 10 8 14 13 9 5 13 5 5 3 14 6 4 9 8 6 15 16 18 14 17 11 23 28 30 30 31 30 25 20 19 13 11 9 11 12 11 13 14 13 11 12
11 15 10 10 5 8 7 3 2 2 3 11 17 6 1 15 16 12 14 23 13 8 17 8 11 19 29 29 31 33 29 24 21 16 13 10 8 6 12 15 14 15 14 12
6 8 13 6 6 8 5 7 5 4 6 6 10 6 6 17 16 18 16 6 8 1 8 5 12 6 22 29 31 31 33 29 24 20 16 16 13 10 16 17 16 13 15 11
4 9 9 9 9 5 6 4 9 3 6 3 4 8 8 11 10 9 6 12 11 10 8 4 13 14 8 25 26 29 34 32 29 24 20 18 17 13 12 13 14 14 14 10
4 4 6 4 3 3 3 5 5 3 2 2 4 6 7 12 10 9 8 10 12 5 11 11 13 12 5 20 23 19 18 13 21 28 23 21 19 19 16 13 15 12 14 16
5 5 8 6 2 5 1 4 2 1 1 4 5 2 3 9 8 11 10 8 8 9 10 9 12 6 6 16 27 22 18 13 9 13 10 23 21 19 20 15 11 12 12 9
4 2 3 6 8 4 5 7 4 4 8 3 5 3 3 10 10 10 9 9 6 11 12 9 12 15 14 15 14 18 14 8 12 15 19 21 22 21 21 23 17 15 14 11
5 5 6 7 2 4 1 6 6 4 3 4 5 5 3 13 12 9 11 7 9 12 12 11 14 15 18 19 17 19 15 7 14 10 15 19 24 22 23 24 24 17 16 16
3 7 4 5 8 4 6 8 9 2 2 5 4 13 10 13 13 11 11 10 10 13 13 12 12 17 18 20 22 18 15 11 6 4 8 7 12 17 20 21 20 18 18 17
4 3 12 14 7 8 7 14 11 4 5 5 15 17 14 13 13 13 10 10 11 12 13 12 11 14 18 21 23 21 13 6 5 6 5 8 10 5 8 15 16 18 14 18
3 5 9 9 10 8 6 11 4 5 12 10 16 11 13 11 11 12 10 12 14 12 12 12 12 17 16 16 19 23 23 20 17 13 11 8 10 7 11 8 6 14 15 17
3 4 1 5 10 9 6 5 7 6 6 15 12 9 15 14 13 11 9 12 12 11 8 9 11 16 22 21 14 18 22 23 24 25 24 18 11 8 7 9 8 4 5 9
3 4 2 4 5 2 5 7 7 9 6 13 18 19 17 14 11 12 10 12 9 9 8 8 17 21 22 18 20 19 15 18 19 18 16 16 18 17 14 12 10 9 8 4
3 3 3 2 3 4 9 6 6 5 7 20 23 19 17 15 14 7 11 13 10 10 15 15 20 21 23 20 16 18 19 20 21 19 18 18 18 14 15 18 16 14 10 9
4 5 3 3 3 1 3 10 12 4 5 8 19 16 21 19 11 6 12 12 15 21 14 14 21 21 18 16 15 16 20 20 19 17 15 14 14 12 17 11 14 14 13 12
1 2 1 4 2 4 6 9 9 4 3 5 13 17 16 8 6 10 13 14 22 18 13 15 19 17 15 14 14 16 17 16 13 12 13 13 14 14 14 13 12 14 16 15
1 3 2 2 2 3 6 8 5 2 9 15 15 17 15 12 15 15 14 11 16 16 13 18 16 13 15 14 13 14 16 14 13 13 14 15 15 16 16 16 15 15 17 17
1 4 2 4 2 3 7 7 7 7 9 7 15 12 10 14 12 9 8 9 15 16 15 15 12 13 14 14 14 15 15 16 16 15 15 16 16 15 15 17 18 20 18 19
4 5 1 4 6 4 9 7 7 7 7 8 9 13 13 13 15 10 7 10 14 16 15 14 12 11 12 12 11 12 13 14 16 18 18 16 16 17 18 17 17 17 19 20
2 2 1 0 2 3 7 7 4 6 7 8 8 6 7 9 9 7 7 12 15 16 17 12 10 13 13 11 11 10 13 13 16 17 17 20 19 20 20 19 21 21 22 22
3 2 3 2 4 4 2 3 7 7 3 5 6 6 7 6 8 13 11 14 16 18 12 12 12 9 8 7 7 9 10 12 16 17 18 19 19 20 20 22 22 20 22 21
Wind_Direction
192 131 215 239 243 249 256 222 153 139 151 113 141 152 177 108 80 273 214 174 158 150 137 147 148 146 149 153 155 159 152 156 158 152 157 163 148 154 160 170 159 160 169 188
195 222 232 227 242 249 259 269 63 62 53 36 128 129 169 160 158 251 304 168 158 139 141 150 147 145 154 157 159 150 154 157 172 163 173 157 140 146 149 155 147 153 167 177
220 237 224 241 236 248 246 227 155 189 89 68 120 81 189 175 150 280 287 302 167 161 158 157 156 151 157 160 166 154 165 166 174 175 159 167 129 156 160 156 156 163 171 168
229 254 228 236 248 239 246 177 121 135 119 158 233 171 237 192 235 266 293 331 183 153 156 160 160 151 158 166 168 169 177 182 184 172 176 167 140 166 167 166 167 167 151 160
245 244 252 218 246 241 249 137 141 145 138 115 212 127 217 152 178 219 260 287 283 169 169 183 165 162 165 168 172 173 182 190 190 191 171 164 161 158 130 166 171 177 176 181
237 240 247 228 240 244 278 220 148 120 88 266 212 147 201 166 183 174 252 248 252 182 184 198 182 168 166 166 170 173 179 186 183 184 165 178 197 172 149 153 168 175 184 187
249 252 248 251 244 290 270 208 230 124 127 241 190 182 150 142 145 156 252 266 252 235 176 202 183 162 165 166 169 174 179 184 186 191 177 177 163 204 191 178 181 178 185 197
221 252 249 214 211 225 264 193 169 135 246 244 146 124 144 132 145 154 161 301 2 264 38 23 3 122 169 169 171 173 180 182 189 193 190 174 183 185 179 184 191 196 186 175
305 224 292 186 216 128 300 236 223 277 276 104 121 87 105 133 140 145 138 115 47 23 16 26 28 13 170 179 174 177 182 185 185 193 198 194 186 198 191 194 203 204 181 208
292 332 308 294 142 39 54 299 359 336 291 30 134 143 141 162 146 109 83 65 92 30 49 70 57 31 3 124 139 168 179 190 193 192 200 206 203 205 213 215 204 202 210 205
21 352 302 51 257 165 288 311 310 123 150 180 157 106 294 122 114 112 92 80 79 76 81 80 73 134 18 89 107 112 104 84 41 349 260 212 211 215 216 222 201 173 174 219
16 280 304 225 228 227 256 267 247 132 289 74 104 112 359 111 109 108 108 109 96 103 106 101 88 80 60 67 117 94 89 77 333 326 310 243 213 210 213 219 213 192 184 196
350 351 337 300 355 18 245 286 272 295 305 287 137 138 142 116 119 113 102 90 97 97 91 86 77 69 68 76 109 134 117 141 305 318 329 243 223 213 212 216 219 209 196 197
170 21 122 240 248 307 300 258 274 269 33 104 70 127 141 126 117 116 114 107 94 95 94 92 79 76 73 83 95 121 124 119 139 211 342 14 208 218 228 225 218 215 220 216
87 55 317 313 233 271 336 330 244 275 67 108 161 153 153 136 129 125 127 122 100 100 97 92 97 93 79 81 88 97 107 124 98 76 23 32 42 63 196 224 233 229 224 225
73 121 305 308 334 349 315 325 266 324 98 92 125 123 135 135 128 131 141 126 114 101 92 113 99 93 106 98 94 90 93 93 97 104 94 68 62 38 25 46 178 214 227 235
74 101 41 276 339 351 341 308 355 7 50 140 142 156 148 143 140 140 129 107 104 111 114 101 104 105 86 81 105 104 96 88 79 73 71 67 75 59 51 21 40 83 188 216
57 96 140 292 360 313 277 51 28 2 348 111 122 140 144 142 136 125 125 112 97 82 77 75 80 79 85 74 63 77 79 77 71 62 55 50 46 51 49 48 39 38 40 38
43 58 336 151 185 256 356 14 26 73 56 130 134 140 142 132 122 114 110 101 104 89 73 66 93 78 68 66 58 64 70 68 59 47 36 31 35 27 16 27 29 25 17 10
42 118 118 339 292 299 78 32 0 3 55 143 140 139 141 137 127 139 116 100 89 86 77 70 87 79 66 56 54 56 61 53 38 27 20 16 14 14 8 357 5 0 12 5
24 358 182 288 267 44 20 20 340 53 279 250 143 141 146 142 157 136 107 102 108 108 108 91 83 76 79 71 64 59 50 38 23 13 6 0 357 353 352 347 354 340 338 338
338 149 222 312 344 161 354 30 63 101 54 86 89 94 93 88 89 102 110 113 117 129 107 99 88 77 71 63 55 52 42 31 24 12 4 357 351 345 341 339 334 333 322 317
293 130 136 114 180 109 73 88 39 72 104 110 113 108 105 108 106 114 116 119 120 110 99 96 91 84 72 61 54 43 21 6 0 359 355 349 346 340 333 326 322 321 317 312
217 55 82 72 356 147 99 68 51 66 84 83 127 145 143 147 149 155 137 130 122 114 106 100 89 84 74 61 48 31 15 5 0 351 345 340 338 337 332 328 318 309 307 308
342 75 116 183 5 37 108 136 117 75 90 95 101 90 88 120 135 138 127 122 119 111 99 91 89 84 64 45 29 23 5 4 360 348 344 342 343 339 335 330 323 321 318 311
45 142 14 216 19 110 33 350 139 127 121 142 140 133 147 123 135 131 131 133 119 105 101 89 75 60 41 21 19 5 358 353 351 349 342 339 338 332 333 328 327 319 311 314